Location: Northcutt
(34.7304°N, 84.4305°W)
Time: 15:31:20
(UTC+00:00)

Tiros 1 despin weight - All Passes

Search period start: 26 September 2022 00:00
Search period end: 06 October 2022 00:00
Orbit: 590 x 639 km, 48.2° (Epoch: 23 September)

Date Brightness Start Highest point End Pass type
(mag) Time Alt. Az. Time Alt. Az. Time Alt. Az.
26 Sep - 00:41:39 10° W 00:45:50 36° NNW 00:50:06 10° NE visible
26 Sep - 02:25:29 10° NW 02:28:22 16° N 02:31:17 10° NNE visible
26 Sep - 04:08:05 10° NNW 04:11:17 18° NNE 04:14:30 10° ENE night (unlit)
26 Sep - 05:49:07 10° NW 05:53:38 48° NNE 05:58:10 10° ESE night (unlit)
26 Sep - 07:30:57 10° WNW 07:34:59 29° SW 07:39:00 10° SSE night (unlit)
26 Sep - 21:36:54 10° SSE 21:38:43 12° SE 21:40:34 10° ESE daylight
26 Sep - 23:15:07 10° SW 23:19:37 87° SE 23:24:13 10° NE daylight
27 Sep - 00:57:51 10° WNW 01:01:33 24° NNW 01:05:18 10° NE visible
27 Sep - 02:41:40 10° NW 02:44:21 15° N 02:47:02 10° NE visible
27 Sep - 04:23:22 10° NNW 04:27:08 24° NNE 04:30:54 10° ENE night (unlit)
27 Sep - 06:04:26 10° NW 06:09:06 88° NNE 06:13:47 10° SE night (unlit)
27 Sep - 07:47:39 10° W 07:50:06 14° SW 07:52:32 10° SSW night (unlit)
27 Sep - 21:50:05 10° S 21:53:48 26° SE 21:57:35 10° ENE daylight
27 Sep - 23:30:41 10° WSW 23:35:04 50° NNW 23:39:33 10° NE daylight
28 Sep - 01:14:14 10° WNW 01:17:23 18° NNW 01:20:35 10° NNE visible
28 Sep - 02:57:25 10° NNW 03:00:18 16° N 03:03:11 10° NE visible
28 Sep - 04:38:35 10° NW 04:42:50 35° NNE 04:47:07 10° E night (unlit)
28 Sep - 06:19:58 10° WNW 06:24:26 46° SW 06:28:54 10° SSE night (unlit)
28 Sep - 22:04:39 10° SW 22:09:01 55° SE 22:13:27 10° ENE daylight
28 Sep - 23:46:41 10° W 23:50:41 30° NNW 23:54:46 10° NE visible
29 Sep - 01:30:35 10° NW 01:33:19 15° N 01:36:04 10° NNE visible
29 Sep - 03:12:50 10° NNW 03:16:12 19° NNE 03:19:35 10° ENE visible
29 Sep - 04:53:49 10° NW 04:58:25 59° NNE 05:03:01 10° ESE night (unlit)
29 Sep - 06:35:58 10° W 06:39:38 23° SW 06:43:17 10° S night (unlit)
29 Sep - 20:40:37 10° SSE 20:43:21 16° SE 20:46:07 10° E daylight
29 Sep - 22:19:54 10° WSW 22:24:22 75° NW 22:28:56 10° NE daylight
30 Sep - 00:02:57 10° WNW 00:06:26 21° NNW 00:09:57 10° NNE visible
30 Sep - 01:46:36 10° NNW 01:49:17 15° N 01:51:57 10° NE visible
30 Sep - 03:28:03 10° NW 03:31:59 26° NNE 03:35:56 10° E visible
30 Sep - 05:09:11 10° NW 05:13:50 74° SW 05:18:29 10° SE night (unlit)
30 Sep - 06:53:44 10° WSW 06:54:42 11° SW 06:55:39 10° SW night (unlit)
30 Sep - 20:54:28 10° SSW 20:58:28 33° SE 21:02:32 10° ENE daylight
30 Sep - 22:35:37 10° W 22:39:52 41° NNW 22:44:12 10° NE daylight
01 Oct - 00:19:21 10° NW 00:22:17 17° N 00:25:16 10° NNE visible
01 Oct - 02:02:13 10° NNW 02:05:12 17° N 02:08:13 10° NE visible
01 Oct - 03:43:15 10° NW 03:47:38 41° NNE 03:52:03 10° E night (unlit)
01 Oct - 05:24:50 10° WNW 05:29:06 36° SW 05:33:22 10° SSE night (unlit)
01 Oct - 21:09:18 10° SW 21:13:43 70° SE 21:18:13 10° ENE daylight
01 Oct - 22:51:43 10° W 22:55:31 26° NNW 22:59:23 10° NE daylight
02 Oct - 00:35:36 10° NW 00:38:13 15° N 00:40:52 10° NNE visible
02 Oct - 02:17:31 10° NNW 02:21:04 21° NNE 02:24:37 10° ENE visible
02 Oct - 03:58:30 10° NW 04:03:08 73° NE 04:07:48 10° ESE night (unlit)
02 Oct - 05:41:07 10° W 05:44:14 18° SW 05:47:22 10° S night (unlit)
02 Oct - 19:44:40 10° S 19:47:58 21° SE 19:51:19 10° E daylight
02 Oct - 21:24:43 10° WSW 21:29:07 60° NNW 21:33:35 10° NE daylight
02 Oct - 23:08:03 10° WNW 23:11:18 19° NNW 23:14:35 10° NNE daylight
03 Oct - 00:51:28 10° NNW 00:54:11 15° N 00:56:53 10° NE visible
03 Oct - 02:32:43 10° NW 02:36:48 30° NNE 02:40:54 10° E visible
03 Oct - 04:13:57 10° WNW 04:18:30 58° SW 04:23:04 10° SE night (unlit)
03 Oct - 19:58:56 10° SSW 20:03:07 43° SE 20:07:22 10° ENE daylight
03 Oct - 21:40:34 10° W 21:44:39 34° NNW 21:48:49 10° NE daylight
03 Oct - 23:24:25 10° NW 23:27:11 16° N 23:29:57 10° NNE daylight
04 Oct - 01:06:56 10° NNW 01:10:04 18° NNE 01:13:14 10° ENE visible
04 Oct - 02:47:54 10° NW 02:52:23 49° NNE 02:56:54 10° ESE visible
04 Oct - 04:29:44 10° WNW 04:33:43 28° SW 04:37:42 10° SSE night (unlit)
04 Oct - 18:35:41 10° SSE 18:37:31 12° SE 18:39:21 10° ESE daylight
04 Oct - 20:13:59 10° SW 20:18:25 89° SE 20:22:55 10° NE daylight
04 Oct - 21:56:45 10° WNW 22:00:20 23° NNW 22:03:59 10° NNE daylight
04 Oct - 23:40:33 10° NW 23:43:07 15° N 23:45:42 10° NE visible
05 Oct - 01:22:10 10° NNW 01:25:53 24° NNE 01:29:37 10° ENE visible
05 Oct - 03:03:12 10° NW 03:07:50 90° SW 03:12:29 10° SE visible
05 Oct - 04:46:30 10° W 04:48:48 14° SW 04:51:07 10° SSW night (unlit)
05 Oct - 18:48:53 10° S 18:52:34 26° SE 18:56:18 10° ENE daylight
05 Oct - 20:29:33 10° WSW 20:33:51 48° NNW 20:38:13 10° NE daylight
05 Oct - 22:13:08 10° NW 22:16:09 17° NNW 22:19:12 10° NNE daylight
